TimeAKDT,TemperatureF,Dew PointF,Humidity,Sea Level PressureIn,VisibilityMPH,Wind Direction,Wind SpeedMPH,Gust SpeedMPH,PrecipitationIn,Events,Conditions,WindDirDegrees,DateUTC
12:12 AM,48.2,42.8,82,29.53,10.0,ESE,19.6,31.1,0.00,Rain,Light Rain,120,2012-10-03 08:12:00
12:30 AM,48.2,44.6,87,29.52,10.0,SE,23.0,28.8,0.00,Rain,Light Rain,130,2012-10-03 08:30:00
12:49 AM,48.2,44.6,87,29.51,10.0,SE,25.3,36.8,0.00,,Overcast,130,2012-10-03 08:49:00
12:56 AM,48.0,45.0,89,29.52,10.0,ESE,23.0,36.8,0.00,,Overcast,120,2012-10-03 08:56:00
1:56 AM,48.0,45.0,89,29.48,6.0,SE,24.2,33.4,0.00,Rain,Light Rain,130,2012-10-03 09:56:00
2:13 AM,48.2,44.6,87,29.46,4.0,SE,27.6,35.7,0.01,Rain,Light Rain,130,2012-10-03 10:13:00
2:35 AM,48.2,44.6,87,29.44,5.0,ESE,10.4,31.1,0.02,Rain,Light Rain,110,2012-10-03 10:35:00
2:47 AM,48.2,44.6,87,29.43,4.0,SSE,8.1,18.4,0.02,Rain,Light Rain,150,2012-10-03 10:47:00
2:56 AM,48.0,45.0,89,29.44,5.0,ESE,8.1,18.4,0.03,Rain,Light Rain,110,2012-10-03 10:56:00
3:40 AM,48.2,44.6,87,29.39,5.0,ESE,24.2,29.9,0.04,Rain,Light Rain,120,2012-10-03 11:40:00
3:56 AM,48.9,45.0,86,29.39,4.0,SE,15.0,25.3,0.05,Rain,Light Rain,130,2012-10-03 11:56:00
4:10 AM,48.2,46.4,93,29.36,5.0,ESE,10.4,27.6,0.01,Rain,Light Rain,110,2012-10-03 12:10:00
4:56 AM,50.0,46.9,89,29.33,4.0,ESE,13.8,32.2,0.02,Rain,Light Rain,120,2012-10-03 12:56:00
5:10 AM,50.0,46.4,87,29.29,5.0,ESE,21.9,33.4,0.00,Rain,Light Rain,110,2012-10-03 13:10:00
5:34 AM,50.0,46.4,87,29.27,5.0,SE,21.9,31.1,0.00,Rain,Light Rain,130,2012-10-03 13:34:00
5:56 AM,51.1,46.9,86,29.27,5.0,SE,26.5,38.0,0.00,Rain,Light Rain,130,2012-10-03 13:56:00
6:18 AM,51.8,48.2,88,29.23,7.0,SE,21.9,28.8,0.01,Rain,Light Rain,130,2012-10-03 14:18:00
6:56 AM,51.1,48.0,89,29.22,6.0,SE,19.6,28.8,0.02,Rain,Light Rain,130,2012-10-03 14:56:00
7:56 AM,51.1,48.0,89,29.19,6.0,SE,24.2,40.3,0.02,Rain,Light Rain,130,2012-10-03 15:56:00
8:53 AM,50.0,46.4,87,29.13,3.0,SE,28.8,40.3,0.05,Rain,Light Rain,130,2012-10-03 16:53:00
8:56 AM,51.1,46.9,86,29.15,3.0,SE,26.5,40.3,0.06,Rain,Light Rain,130,2012-10-03 16:56:00
9:42 AM,50.0,46.4,87,29.10,2.0,SE,26.5,36.8,0.05,Rain,Light Rain,130,2012-10-03 17:42:00
9:56 AM,51.1,46.9,86,29.12,2.0,SE,26.5,35.7,0.06,Rain,Light Rain,130,2012-10-03 17:56:00
9:58 AM,50.0,46.4,87,29.10,2.0,SE,23.0,34.5,0.00,Rain,Light Rain,130,2012-10-03 17:58:00
10:56 AM,51.1,46.0,83,29.09,2.0,SE,16.1,27.6,0.02,Rain,Light Rain,140,2012-10-03 18:56:00
11:09 AM,51.8,46.4,82,29.06,6.0,SE,17.3,23.0,0.00,Rain,Light Rain,130,2012-10-03 19:09:00
11:56 AM,51.1,46.9,86,29.08,6.0,SSE,10.4,-,0.00,Rain,Light Rain,160,2012-10-03 19:56:00
12:56 PM,50.0,45.0,83,29.05,8.0,SSE,18.4,26.5,0.00,,Mostly Cloudy,150,2012-10-03 20:56:00
1:56 PM,48.9,46.0,90,29.02,3.0,SE,17.3,25.3,0.00,Rain,Light Rain,130,2012-10-03 21:56:00
2:37 PM,50.0,46.4,87,28.99,6.0,SSE,23.0,34.5,0.01,Rain,Light Rain,150,2012-10-03 22:37:00
2:56 PM,50.0,46.0,86,28.99,6.0,SSE,19.6,26.5,0.01,Rain,Light Rain,150,2012-10-03 22:56:00
3:08 PM,50.0,46.4,87,28.97,5.0,SSE,16.1,27.6,0.00,Rain,Light Rain,150,2012-10-03 23:08:00
3:38 PM,50.0,46.4,87,28.95,2.0,SE,17.3,24.2,0.00,Rain,Light Rain,130,2012-10-03 23:38:00
3:56 PM,48.9,45.0,86,28.96,2.0,SE,15.0,35.7,0.00,Rain,Light Rain,140,2012-10-03 23:56:00
4:56 PM,48.9,45.0,86,28.93,10.0,SSE,12.7,23.0,0.00,,Mostly Cloudy,160,2012-10-04 00:56:00
5:56 PM,50.0,46.0,86,28.92,10.0,SSE,10.4,-,0.00,Rain,Light Rain,160,2012-10-04 01:56:00
6:56 PM,50.0,44.1,80,28.97,10.0,SW,18.4,-,0.00,,Overcast,220,2012-10-04 02:56:00
7:56 PM,50.0,44.1,80,29.02,10.0,SSW,15.0,-,0.01,Rain,Light Rain,210,2012-10-04 03:56:00
8:56 PM,46.9,37.9,71,29.11,10.0,SW,18.4,28.8,0.00,Rain,Light Rain,230,2012-10-04 04:56:00
9:56 PM,46.0,37.0,71,29.18,10.0,WSW,24.2,29.9,0.00,Rain,Light Rain,240,2012-10-04 05:56:00
10:56 PM,46.9,37.0,68,29.24,10.0,SW,28.8,55.2,0.01,Rain,Light Rain,220,2012-10-04 06:56:00
11:40 PM,46.4,35.6,66,29.25,10.0,SW,27.6,40.3,0.00,,Overcast,220,2012-10-04 07:40:00
11:56 PM,46.9,36.0,66,29.28,10.0,SW,23.0,40.3,0.00,,Overcast,230,2012-10-04 07:56:00